Regional Weather Roundup
Issued by NWS Little Rock, AR

Home | Current Version | Previous Version | Graphics & Text | Print | Product List | Glossary On
Versions: 1 2 3 4 5 6 7 8 9 10 11 12 13 14 15 16 17 18 19 20 21 22 23 24 25 26 27 28 29 30 31 32
000
ASUS44 KLZK 230105
RWRLZK

WEATHER ROUNDUP FOR ARKANSAS
NATIONAL WEATHER SERVICE LITTLE ROCK AR
800 PM CDT MON MAY 22 2017

NOTE: "FAIR" INDICATES FEW OR NO CLOUDS BELOW 12,000 FEET WITH NO
SIGNIFICANT WEATHER AND/OR OBSTRUCTIONS TO VISIBILITY.

ARZ001-003-010-029-230200-
NORTHWEST ARKANSAS

CITY           SKY/WX    TMP DP  RH WIND       PRES   REMARKS
FAYETTEVILLE   PTCLDY    66  56  70 S3        29.94F
FORT SMITH     CLOUDY    74  53  48 NE8       29.92S
HARRISON       PTCLDY    68  50  52 E5        29.95F
BENTONVILLE    CLOUDY    70  52  52 CALM      29.95S
ROGERS         CLOUDY    70  52  52 CALM      29.95F
SILOAM SPGS    MOCLDY    68  54  60 S3        29.94S
HIGHFILL       CLOUDY    70  54  56 CALM      29.94F
SPRINGDALE     MOCLDY    70  52  52 S7        29.96F
$$

ARZ004-005-016-230200-
NORTH CENTRAL ARKANSAS

CITY           SKY/WX    TMP DP  RH WIND       PRES   REMARKS
BATESVILLE     CLOUDY    68  54  60 S6        29.96F
FLIPPIN        CLEAR     68  48  49 CALM      29.93S
MTN HOME       CLEAR     65  54  67 SE5       29.94S
$$

ARZ040-041-230200-
WEST CENTRAL ARKANSAS

CITY           SKY/WX    TMP DP  RH WIND       PRES   REMARKS
MENA           CLEAR     70  54  56 SE3       29.96S
MOUNT IDA      CLOUDY    67  53  61 VRB3      29.94S
$$

ARZ009-017-025-026-028-230200-
NORTHEAST ARKANSAS

CITY           SKY/WX    TMP DP  RH WIND       PRES   REMARKS
JONESBORO      CLOUDY    69  51  52 S3        29.96S
NEWPORT        CLOUDY    68  56  65 S5        29.96F
WALNUT RIDGE   CLOUDY    72  52  49 CALM      29.96S
BLYTHEVILLE    CLOUDY    70  56  61 CALM      29.96S
$$

ARZ022-023-033-042-044-230200-
CENTRAL ARKANSAS

CITY           SKY/WX    TMP DP  RH WIND       PRES   REMARKS
LITTLE ROCK    CLOUDY    66  56  70 CALM      29.96F
N LITTLE ROCK    N/A     65  58  75 CALM      29.96F
JACKSONVILLE   CLOUDY    66  57  72 E3        29.95F
CONWAY           N/A     68  57  68 S6        29.94S
SEARCY         CLOUDY    66  60  81 CALM      29.98S
HOT SPRINGS    CLOUDY    67  55  65 S5        29.96F
RUSSELLVILLE   CLOUDY    69  52  54 VRB3      29.95R
CLINTON        MOCLDY    68  57  68 CALM      29.96R
$$

ARZ036-230200-
EAST ARKANSAS

CITY           SKY/WX    TMP DP  RH WIND       PRES   REMARKS
WEST MEMPHIS   CLOUDY    66  61  84 N3        29.94F
$$

ARZ050-053-066-070-073-230200-
SOUTHWEST ARKANSAS

CITY           SKY/WX    TMP DP  RH WIND       PRES   REMARKS
ARKADELPHIA      N/A     66  58  75 S6        29.96F
CAMDEN         CLOUDY    64  57  77 NW3       29.96F
TEXARKANA      CLOUDY    61  58  90 E5        29.96F
EL DORADO      CLOUDY    63  61  93 N3        29.97R
DE QUEEN       CLOUDY    68  56  65 SE3       29.93F
$$

ARZ056-057-069-230200-
SOUTHEAST ARKANSAS

CITY           SKY/WX    TMP DP  RH WIND       PRES   REMARKS
PINE BLUFF     CLOUDY    66  57  72 CALM      29.96F
STUTTGART      CLOUDY    68  48  49 CALM      29.97S
MONTICELLO     CLOUDY    63  60  90 NW3       29.95S

$$






USA.gov is the U.S. government's official web portal to all federal, state and local government web resources and services.